Weather History for Atlantic, IA

Change the Weather History Date:

Thursday, April 17, 2014

  Actual Average Record
Temperature  
Mean Temperature 42 °F -  
Max Temperature 53 °F 61 °F 87 °F (2004)
Min Temperature 32 °F 39 °F 21 °F (1997)
Degree Days  
Heating Degree Days 22    
Moisture  
Dew Point 27 °F    
Average Humidity 64    
Maximum Humidity 87    
Minimum Humidity 30    
Precipitation  
Precipitation 0.00 in - - ()
Sea Level Pressure  
Sea Level Pressure 30.24 in    
Wind  
Wind Speed 13 mph (NNW)    
Max Wind Speed 23 mph    
Max Gust Speed 29 mph    
Visibility 10 miles    
Events      
Averages and records for this station are not official NWS values.
T = Trace of Precipitation, MM = Missing Value Source: NWS Daily Summary

Daily Weather History Graph

Daily Weather History Graph

Search for Another Location

Airport:

Trip Planner

Search our weather history database for the weather conditions in past years. The results will help you decide how hot, cold, wet, or windy it might be!

Date:

Astronomy

Apr. 17, 2014 Rise Set
Actual Time 6:37 AM CDT 8:02 PM CDT
Civil Twilight 6:08 AM CDT 8:31 PM CDT
Nautical Twilight 5:33 AM CDT 9:06 PM CDT
Astronomical Twilight 4:57 AM CDT 9:43 PM CDT
Moon 10:50 PM CDT (4/17) 8:08 AM CDT (4/17)
Length of Visible Light 14h 23m
Length of Day
13h 25m
Waning Gibbous, 93% of the Moon is Illuminated
Apr 17
Waning Gibbous
Apr 22
Last Quarter
Apr 29
New
May 6
First Quarter
May 14
Full

Hourly Weather History & Observations

Time (CDT) Temp. Windchill Dew Point Humidity Pressure Visibility Wind Dir Wind Speed Gust Speed Precip Events Conditions
12:15 AM 33.8 °F 21.9 °F 30.2 °F 87% 30.06 in 10.0 mi NW 21.9 mph - N/A   Overcast
12:35 AM 33.8 °F 23.9 °F 28.4 °F 81% 30.08 in 10.0 mi NW 15.0 mph 25.3 mph N/A   Overcast
12:55 AM 33.8 °F 23.2 °F 28.4 °F 81% 30.08 in 10.0 mi NW 17.3 mph 28.8 mph N/A   Overcast
1:15 AM 33.8 °F 24.3 °F 28.4 °F 81% 30.10 in 10.0 mi NW 13.8 mph 20.7 mph N/A   Overcast
1:35 AM 33.8 °F 23.5 °F 30.2 °F 87% 30.11 in 10.0 mi NW 16.1 mph 21.9 mph N/A   Overcast
1:55 AM 33.8 °F 23.5 °F 30.2 °F 87% 30.12 in 10.0 mi NW 16.1 mph 26.5 mph N/A   Overcast
2:15 AM 33.8 °F 22.2 °F 28.4 °F 81% 30.11 in 10.0 mi NNW 20.7 mph - N/A   Overcast
2:35 AM 33.8 °F 21.6 °F 28.4 °F 81% 30.10 in 10.0 mi NNW 23.0 mph - N/A   Overcast
2:55 AM 33.8 °F 23.9 °F 28.4 °F 81% 30.12 in 10.0 mi NNW 15.0 mph 27.6 mph N/A   Overcast
3:15 AM 32.0 °F 20.8 °F 28.4 °F 87% 30.13 in 10.0 mi NNW 17.3 mph 25.3 mph N/A   Overcast
3:35 AM 32.0 °F 20.8 °F 28.4 °F 87% 30.14 in 10.0 mi NNW 17.3 mph 25.3 mph N/A   Overcast
3:55 AM 32.0 °F 21.2 °F 28.4 °F 87% 30.16 in 10.0 mi NNW 16.1 mph 24.2 mph N/A   Overcast
4:15 AM 32.0 °F 20.5 °F 26.6 °F 80% 30.17 in 10.0 mi NW 18.4 mph - N/A   Overcast
4:35 AM 32.0 °F 22.5 °F 26.6 °F 80% 30.19 in 10.0 mi NNW 12.7 mph - N/A   Overcast
4:55 AM 32.0 °F 22.5 °F 26.6 °F 80% 30.20 in 10.0 mi NW 12.7 mph 19.6 mph N/A   Overcast
5:15 AM 32.0 °F 22.1 °F 26.6 °F 80% 30.20 in 10.0 mi NNW 13.8 mph - N/A   Overcast
5:35 AM 32.0 °F 23.6 °F 26.6 °F 80% 30.21 in 10.0 mi NNW 10.4 mph 18.4 mph N/A   Overcast
5:55 AM 32.0 °F 22.5 °F 26.6 °F 80% 30.22 in 10.0 mi NNW 12.7 mph - N/A   Overcast
6:15 AM 32.0 °F 23.0 °F 26.6 °F 80% 30.22 in 10.0 mi NNW 11.5 mph - N/A   Overcast
6:35 AM 32.0 °F 23.6 °F 26.6 °F 80% 30.24 in 10.0 mi NW 10.4 mph - N/A   Overcast
6:55 AM 32.0 °F 22.1 °F 26.6 °F 80% 30.23 in 10.0 mi NNW 13.8 mph - N/A   Overcast
7:15 AM 32.0 °F 22.1 °F 26.6 °F 80% 30.24 in 10.0 mi North 13.8 mph - N/A   Overcast
7:35 AM 32.0 °F 22.1 °F 26.6 °F 80% 30.25 in 10.0 mi NNW 13.8 mph 19.6 mph N/A   Overcast
7:55 AM 32.0 °F 21.2 °F 26.6 °F 80% 30.27 in 10.0 mi NNW 16.1 mph - N/A   Overcast
8:15 AM 32.0 °F 22.1 °F 26.6 °F 80% 30.27 in 10.0 mi North 13.8 mph 19.6 mph N/A   Overcast
8:35 AM 32.0 °F 22.1 °F 26.6 °F 80% 30.28 in 10.0 mi NNW 13.8 mph - N/A   Overcast
8:55 AM 32.0 °F 22.1 °F 26.6 °F 80% 30.29 in 10.0 mi NNW 13.8 mph - N/A   Overcast
9:15 AM 33.8 °F 23.5 °F 26.6 °F 75% 30.28 in 10.0 mi NNW 16.1 mph - N/A   Overcast
9:35 AM 33.8 °F 24.8 °F 26.6 °F 75% 30.29 in 10.0 mi NNW 12.7 mph - N/A   Overcast
9:55 AM 33.8 °F 24.8 °F 26.6 °F 75% 30.31 in 10.0 mi NNW 12.7 mph 19.6 mph N/A   Overcast
10:15 AM 35.6 °F 27.1 °F 26.6 °F 70% 30.31 in 10.0 mi NNW 12.7 mph - N/A   Overcast
10:35 AM 35.6 °F 28.0 °F 26.6 °F 70% 30.33 in 10.0 mi NNW 10.4 mph - N/A   Overcast
10:55 AM 37.4 °F 29.8 °F 26.6 °F 65% 30.32 in 10.0 mi NNW 11.5 mph - N/A   Overcast
11:15 AM 37.4 °F 32.1 °F 28.4 °F 70% 30.32 in 10.0 mi NNW 6.9 mph 13.8 mph N/A   Scattered Clouds
11:35 AM 39.2 °F 33.6 °F 28.4 °F 65% 30.32 in 10.0 mi NNW 8.1 mph 15.0 mph N/A   Partly Cloudy
11:55 AM 41.0 °F 37.1 °F 28.4 °F 61% 30.31 in 10.0 mi Variable 5.8 mph 12.7 mph N/A   Partly Cloudy
12:15 PM 41.0 °F 35.2 °F 28.4 °F 61% 30.31 in 10.0 mi NW 9.2 mph - N/A   Clear
12:35 PM 42.8 °F 37.5 °F 28.4 °F 57% 30.30 in 10.0 mi North 9.2 mph - N/A   Clear
12:55 PM 44.6 °F 39.2 °F 28.4 °F 53% 30.29 in 10.0 mi NNE 10.4 mph 17.3 mph N/A   Clear
1:15 PM 44.6 °F 40.2 °F 30.2 °F 57% 30.29 in 10.0 mi NNW 8.1 mph 15.0 mph N/A   Clear
1:35 PM 46.4 °F 41.1 °F 30.2 °F 53% 30.28 in 10.0 mi NNW 11.5 mph - N/A   Clear
1:55 PM 48.2 °F - 28.4 °F 46% 30.28 in 10.0 mi North 11.5 mph - N/A   Clear
2:15 PM 48.2 °F - 28.4 °F 46% 30.27 in 10.0 mi NNW 9.2 mph - N/A   Clear
2:35 PM 50.0 °F - 28.4 °F 43% 30.27 in 10.0 mi NNE 9.2 mph 17.3 mph N/A   Clear
2:55 PM 50.0 °F - 28.4 °F 43% 30.27 in 10.0 mi NNE 8.1 mph - N/A   Clear
3:15 PM 50.0 °F - 28.4 °F 43% 30.26 in 10.0 mi Variable 4.6 mph 11.5 mph N/A   Clear
3:35 PM 51.8 °F - 26.6 °F 38% 30.26 in 10.0 mi Calm Calm - N/A   Clear
3:55 PM 51.8 °F - 26.6 °F 38% 30.25 in 10.0 mi Variable 4.6 mph - N/A   Clear
4:15 PM 53.6 °F - 28.4 °F 38% 30.25 in 10.0 mi Calm Calm - N/A   Clear
4:35 PM 53.6 °F - 26.6 °F 35% 30.24 in 10.0 mi Calm Calm 11.5 mph N/A   Clear
4:55 PM 53.6 °F - 26.6 °F 35% 30.23 in 10.0 mi Variable 4.6 mph - N/A   Clear
5:15 PM 53.6 °F - 24.8 °F 33% 30.24 in 10.0 mi NNE 4.6 mph - N/A   Clear
5:35 PM 53.6 °F - 24.8 °F 33% 30.24 in 10.0 mi Variable 5.8 mph - N/A   Clear
5:55 PM 53.6 °F - 23.0 °F 30% 30.24 in 10.0 mi Calm Calm - N/A   Clear
6:15 PM 53.6 °F - 24.8 °F 33% 30.24 in 10.0 mi NW 6.9 mph - N/A   Clear
6:35 PM 53.6 °F - 24.8 °F 33% 30.24 in 10.0 mi NNW 3.5 mph - N/A   Clear
6:55 PM 53.6 °F - 24.8 °F 33% 30.23 in 10.0 mi Calm Calm - N/A   Clear
7:15 PM 53.6 °F - 23.0 °F 30% 30.23 in 10.0 mi Calm Calm - N/A   Clear
7:35 PM 51.8 °F - 24.8 °F 35% 30.24 in 10.0 mi Calm Calm - N/A   Clear
7:55 PM 51.8 °F - 24.8 °F 35% 30.24 in 10.0 mi Calm Calm - N/A   Clear
8:15 PM 48.2 °F - 24.8 °F 40% 30.24 in 10.0 mi Calm Calm - N/A   Clear
8:35 PM 44.6 °F - 28.4 °F 53% 30.25 in 9.0 mi Calm Calm - N/A   Partly Cloudy
8:55 PM 41.0 °F 38.0 °F 28.4 °F 61% 30.26 in 10.0 mi North 4.6 mph - N/A   Mostly Cloudy
9:15 PM 39.2 °F 35.9 °F 28.4 °F 65% 30.26 in 10.0 mi NNE 4.6 mph - N/A   Mostly Cloudy
9:35 PM 39.2 °F 35.9 °F 26.6 °F 61% 30.27 in 10.0 mi NNE 4.6 mph - N/A   Mostly Cloudy
9:55 PM 39.2 °F 35.9 °F 26.6 °F 61% 30.27 in 10.0 mi North 4.6 mph - N/A   Overcast
10:15 PM 35.6 °F 31.7 °F 26.6 °F 70% 30.27 in 10.0 mi North 4.6 mph - N/A   Overcast
10:35 PM 35.6 °F 31.7 °F 26.6 °F 70% 30.27 in 10.0 mi North 4.6 mph - N/A   Overcast
10:55 PM 35.6 °F 31.7 °F 26.6 °F 70% 30.27 in 10.0 mi North 4.6 mph - N/A   Overcast
11:15 PM 35.6 °F 31.7 °F 26.6 °F 70% 30.27 in 10.0 mi North 4.6 mph - N/A   Overcast
11:35 PM 33.8 °F 30.8 °F 26.6 °F 75% 30.27 in 10.0 mi North 3.5 mph - N/A   Overcast
11:55 PM 32.0 °F 27.5 °F 26.6 °F 80% 30.27 in 10.0 mi North 4.6 mph - N/A   Overcast